DECAYED

FENGYUN 1C DEB, 35183 (Decayed)

Orbit data source: Space-Track

FENGYUN 1C DEB, 35183 was space debris in SSO originally from a launch on Mon, 10 May 1999 UTC launched from the Taiyaun Space Center, China (TSC). Fengyun 1C debris stems from the Chinese weather satellite Fengyun-1C, which was intentionally destroyed by a Chinese anti-satellite missile in 2007. This event dramatically increased the amount of space debris, with thousands of trackable fragments posing hazards to satellites and human spaceflight. The Fengyun 1C debris cloud has become a focal point in discussions about space sustainability and the need for international regulations to prevent the creation of new debris.

Not visible in the next 10 days
Identifier
35183, 1999-025DNP
Orbit
Decayed
Country
Flag of CNCN / PRC
Related business
Manufacturer
Unknown
Mission
Decayed spacecraft
Bus & Motor
Unknown
Mass
Unknown
Launch date (UTC)
1999-05-10 (27 years ago)
Launch vehicle
Unknown
Launch site
Taiyaun Space Center, China (TSC)
Object type
Payload
Rocket body
Debris
Shape & HBR
Unknown shape, 0.1 m
Radar Cross Section
Small (<0.1 m²)

Expand to show TLE details & history
Last TLE update: 2 years ago

TLE from 2 years ago
0 FENGYUN 1C DEB
1 35183U 99025DNP 25030.17399597  .00478596  00000-0  77379-2 0  9999
2 35183  98.8312 183.5578 0017496  26.6437 333.5706 15.50981353617376
Epoch: 2025-01-30T04:10Z
TLE epoch observation values (Epoch: 2025-01-30T04:10:33.251Z)
Latitude
-0.00001°
Longitude
-8.73558°
Altitude
406.307 km
Speed
7.673 km/s
True Right ascension
12h 14m 13s
True Declination
0° 00' 00"
Sunlit
Object was in full shadow at epoch
Visualization orbit readout
Latitude
Unknown
Longitude
Unknown
Altitude
Unknown
Speed
Unknown
Apparent Right ascension
Unknown
Apparent Declination
Unknown
Sunlit
N/A
Visualization observer readout
Local Sidereal Time
12:56:51
Azimuth
Unknown
Elevation
Unknown
Doppler factor
Unknown
Orbital elements
Apogee altitude
422.73 km
Perigee altitude
398.974 km
Semi-major axis
6,788.989 km
Eccentricity
0.00175
Inclination
98.8312°
RAAN
183.5578°
Arg. of periapsis
26.6437°
True anomaly
333.48119°
Mean anomaly
333.5706°
Eccentric anomaly
333.52591°
Mean motion
3.88003 °/min
Orbital period
92.78 mins
BSTAR
0.0077379
Loading maneuver chart data...
Computing Atmospheric mass density...
Loading historical data...
Loading historical data...
Loading historical data...
Loading historical data...
Loading historical data...
Loading historical data...
Loading historical data...

Documentation

Showing up to 5 results
|